KUIPER-00070 (64817 NORAD) Tracking and Keplerian Element Data

This shows tracking and keplerian element data for the satellite.

Feedback or suggestion? Click here.




ElementValue
Catalog64817
NameKUIPER-00070
Epoch Orbit2462
Epoch Day354.03565715
Epoch Year2025
RAAN297.7954
Inclination51.9008
Eccentricity0.0010703
Argument of Perigee353.3017
Mean Anonmoly6.78
Mean Motion14.79930231
Decay Rate3.639E-05
L11 64817U 25151B 25354.03565715 .00003639 00000+0 50603-3 0 9998
L22 64817 51.9008 297.7954 0010703 353.3017 6.7800 14.79930231 24621



Live tracking and technical data element details for KUIPER-00070 (NORAD 64817). KUIPER-00070 can be tracked NOW for your location showing map with azimuth and elevation plus other details from your city location.







IsCatalogInMostPopularTable: catalog: 64817, numindb: 6
Update: records affected: 1



GetName: 64817 KUIPER-00070

Hit Count: updated at: Mon, 20 Apr 2026 10:30:20 GMT